Terminal Aerodrome Forecast
Issued by NWS Boston, MA

Home | Current Version | Previous Version | Text Only | Print | Product List | Glossary On
Versions: 1 2 3 4 5 6 7 8 9 10 11 12 13 14 15 16 17 18 19 20 21 22 23 24 25 26 27 28 29 30 31 32 33 34 35 36
000
FTUS41 KBOX 181742
TAFPVD
TAF
KPVD 181742Z 1818/1918 02005KT P6SM SKC
     FM190300 36007KT P6SM SCT050
     FM190800 02009KT P6SM FEW250
     FM191700 06007KT P6SM SKC=

USA.gov is the U.S. government's official web portal to all federal, state and local government web resources and services.